Terminal Aerodrome Forecast
Issued by NWS

Home | Current Version | Previous Version | Text Only | Print | Product List | Glossary On
Versions: 1 2 3 4 5 6 7 8 9 10 11 12 13 14 15 16 17 18 19 20 21 22 23 24 25 26 27 28 29 30 31 32 33 34 35 36 37 38 39 40 41
000
FTAK31 PANC 181136
TAFASN
TAF
PASN 181136Z 1812/1912 02008KT P6SM VCSH SCT005 OVC015
      TEMPO 1813/1817 3SM -SHSN BR OVC005
     FM182200 33012KT 5SM -SHSN SCT007 OVC015=

USA.gov is the U.S. government's official web portal to all federal, state and local government web resources and services.